Patuxent River, MD

6:37 PM EST on February 22, 2018 (GMT -0500)
Patuxent River Naval Air Station

Weather History for KNHK - May, 2013

Change the Weather History Date:

Sunday, May 26, 2013

  Actual Average Record
Temperature  
Mean Temperature 62 °F -  
Max Temperature 73 °F 76 °F 93 °F (2011)
Min Temperature 48 °F 59 °F 47 °F (1988)
Degree Days  
Heating Degree Days 4    
Growing Degree Days 12 (Base 50)    
Moisture  
Dew Point 36 °F    
Average Humidity 44    
Maximum Humidity 80    
Minimum Humidity 21    
Precipitation  
Precipitation 0.00 in - - ()
Sea Level Pressure  
Sea Level Pressure 30.17 in    
Wind  
Wind Speed 9 mph (WNW)    
Max Wind Speed 14 mph    
Max Gust Speed 23 mph    
Visibility 10 miles    
Events      
Averages and records for this station are not official NWS values.
T = Trace of Precipitation, MM = Missing Value Source: NWS Daily Summary

Daily Weather History Graph

Daily Weather History Graph

Search for Another Location

Airport or City:

Trip Planner

Search our weather history database for the weather conditions in past years. The results will help you decide how hot, cold, wet, or windy it might be!

Date:

Astronomy

May. 26, 2013 Rise Set
Actual Time 5:46 AM EDT 8:19 PM EDT
Civil Twilight 5:16 AM EDT 8:49 PM EDT
Nautical Twilight 4:38 AM EDT 9:28 PM EDT
Astronomical Twilight 3:55 AM EDT 10:10 PM EDT
Moon 10:05 PM EDT (5/26) 7:13 AM EDT (5/26)
Length of Visible Light 15h 33m
Length of Day
14h 32m
Waning Gibbous, 97% of the Moon is Illuminated
May 26
Waning Gibbous
May 31
Last Quarter
Jun 8
New
Jun 16
First Quarter
Jun 23
Full

Hourly Weather History & Observations

Time (EDT) Temp. Dew Point Humidity Pressure Visibility Wind Dir Wind Speed Gust Speed Precip Events Conditions
12:52 AM 55.9 °F 35.1 °F 45% 30.15 in 10.0 mi West 9.2 mph - N/A   Clear
1:52 AM 54.0 °F 35.1 °F 49% 30.15 in 10.0 mi West 9.2 mph - N/A   Clear
2:52 AM 53.1 °F 34.0 °F 48% 30.15 in 10.0 mi West 9.2 mph - N/A   Clear
3:52 AM 52.0 °F 34.0 °F 50% 30.15 in 10.0 mi West 9.2 mph - N/A   Clear
4:52 AM 51.1 °F 34.0 °F 52% 30.17 in 10.0 mi West 10.4 mph - N/A   Clear
5:52 AM 51.1 °F 34.0 °F 52% 30.18 in 10.0 mi West 10.4 mph - N/A   Clear
6:06 AM 51.8 °F 33.8 °F 50% 30.18 in 10.0 mi West 10.4 mph - N/A   Mostly Cloudy
6:52 AM 52.0 °F 35.1 °F 53% 30.19 in 10.0 mi West 11.5 mph - N/A   Mostly Cloudy
7:52 AM 55.9 °F 36.0 °F 47% 30.20 in 10.0 mi West 11.5 mph - N/A   Mostly Cloudy
8:52 AM 60.1 °F 37.0 °F 42% 30.21 in 10.0 mi WNW 12.7 mph - N/A   Scattered Clouds
9:52 AM 64.0 °F 37.0 °F 37% 30.22 in 10.0 mi NW 11.5 mph - N/A   Partly Cloudy
10:52 AM 64.9 °F 36.0 °F 34% 30.21 in 10.0 mi NW 9.2 mph - N/A   Partly Cloudy
11:52 AM 66.0 °F 34.0 °F 30% 30.19 in 10.0 mi NW 10.4 mph 17.3 mph N/A   Clear
12:52 PM 69.1 °F 33.1 °F 26% 30.19 in 10.0 mi West 13.8 mph 20.7 mph N/A   Clear
1:52 PM 72.0 °F 32.0 °F 23% 30.16 in 10.0 mi West 10.4 mph - N/A   Clear
2:52 PM 72.0 °F 33.1 °F 24% 30.14 in 10.0 mi West 10.4 mph 19.6 mph N/A   Clear
3:52 PM 72.0 °F 34.0 °F 25% 30.14 in 10.0 mi WNW 12.7 mph 23.0 mph N/A   Clear
4:52 PM 73.9 °F 32.0 °F 21% 30.13 in 10.0 mi West 12.7 mph 20.7 mph N/A   Clear
5:52 PM 73.0 °F 30.9 °F 21% 30.13 in 10.0 mi West 12.7 mph - N/A   Clear
6:52 PM 71.1 °F 36.0 °F 28% 30.14 in 10.0 mi WNW 8.1 mph - N/A   Clear
7:52 PM 66.0 °F 39.0 °F 37% 30.15 in 10.0 mi Calm Calm - N/A   Clear
8:52 PM 55.0 °F 43.0 °F 64% 30.17 in 10.0 mi Calm Calm - N/A   Clear
9:52 PM 51.1 °F 44.1 °F 77% 30.19 in 10.0 mi Calm Calm - N/A   Clear
10:52 PM 50.0 °F 42.1 °F 74% 30.21 in 10.0 mi Calm Calm - N/A   Clear
11:52 PM 48.0 °F 42.1 °F 80% 30.22 in 10.0 mi Calm Calm - N/A   Clear